Regional Weather Roundup
Issued by NWS

Home | Current Version | Previous Version | Text Only | Print | Product List | Glossary Off
Versions: 1 2 3 4 5 6 7 8 9 10 11 12 13 14 15 16 17 18 19 20 21 22 23 24 25 26 27

000
ASUS45 KBOU 230207
RWRCO

WEATHER ROUNDUP FOR COLORADO
NATIONAL WEATHER SERVICE DENVER/BOULDER CO
800 PM MDT MON MAY 22 2017

NOTE: "FAIR" INDICATES FEW OR NO CLOUDS BELOW 12000 FEET WITH NO
SIGNIFICANT WEATHER AND/OR OBSTRUCTIONS TO VISIBILITY.

COZ001>005-013-030-031-230300-
...NORTHWEST COLORADO...

CITY           SKY/WX    TMP DP  RH WIND       PRES   REMARKS
CRAIG          MOCLDY    48  32  53 E14       30.26R
HAYDEN         CLOUDY    43  30  61 E10       30.27R
MEEKER         MOCLDY    49  39  68 N7        30.25R
RABBIT EARS PA CLOUDY    28  27  93 NE8       30.33R WCI  20
STEAMBOAT SPGS CLOUDY    39  34  81 CALM      30.26R
WALDEN           N/A     34  30  86 NW6       30.31S WCI  29
$$

COZ006>008-011-230300-
...WEST CENTRAL VALLEYS...

CITY           SKY/WX    TMP DP  RH WIND       PRES   REMARKS
GRAND JUNCTION MOCLDY    69  32  25 NE24G31   30.07R
MONTROSE       MOCLDY    65  29  25 CALM      30.13S
EAGLE          MOCLDY    50  40  68 E6        30.25R
RIFLE          MOCLDY    57  38  48 NW7       30.20R
DELTA          CLOUDY    71  28  20 N13G18    30.10R
NUCLA          FAIR      63  28  27 NW7       30.17S
$$

COZ017>023-064>068-230300-
...SOUTHWEST COLORADO...

CITY           SKY/WX    TMP DP  RH WIND       PRES   REMARKS
DURANGO        FAIR      63  19  18 NW12      30.10R
CORTEZ         FAIR      67  26  21 NW14G20   30.12R
PAGOSA SPRINGS FAIR      61  13  15 N15G21    30.15R
TELLURIDE      MOCLDY    51  22  32 NW10      30.30S
WOLF CREEK PAS FAIR      36  18  48 NW8       30.42R
$$

COZ009-010-012-014-032>034-037-058>063-230300-
...CENTRAL COLORADO...

CITY           SKY/WX    TMP DP  RH WIND       PRES   REMARKS
ASPEN          LGT RAIN  41  36  82 CALM      30.27R
BUENA VISTA    CLOUDY    48  32  54 NW18G28   30.20R
COPPER MTN     HVY SNOW  34  30  86 NW14      30.33F VSB<1/4 WCI  24
BERTHOUD PASS  CLOUDY    23  12  63 MISG      30.32R
COTTONWOOD PAS CLOUDY    45  27  49 SW9       30.27S
GUNNISON       FAIR      50  32  50 N6        30.22R
KREMMLING      LGT RAIN  41  36  81 W6        30.32R
LEADVILLE      LGT SNOW  33  31  92 S3        30.28R VSB 3/4
MONARCH PASS   CLOUDY    32  27  80 W30G36    30.45S WCI  18
SALIDA         CLOUDY    58  27  30 NW13G22   30.25R
SUNLIGHT       CLOUDY    32  32 100 W9G23     30.38R WCI  24
WILKERSON PASS HVY SNOW  30  28  93 E5        30.34S VSB<1/4 WCI  25
$$

COZ069>075-230300-
...SAN LUIS VALLEY/SANGRE DE CRISTO MOUNTAINS...

CITY           SKY/WX    TMP DP  RH WIND       PRES   REMARKS
ALAMOSA        CLOUDY    56  31  38 N15G30    30.12R
DEL NORTE      FAIR      57  17  20 NW15G24   30.17R
LA VETA PASS   CLOUDY    37  32  81 N5        30.38R
SAGUACHE       FAIR      54  28  37 N14       30.19R
$$

COZ035-036-038>040-230300-
...NORTHERN COLORADO FRONT RANGE...

CITY           SKY/WX    TMP DP  RH WIND       PRES   REMARKS
DENVER INTL AP MOCLDY    44  38  79 N8        30.22S
DMNS CITY PARK   N/A     43  41  91 E8        30.24R
AURORA         PTCLDY    42  40  93 CALM      30.23F
FRONT RANGE AP MOCLDY    45  41  87 N7        30.23S
ERIE MUNI ARPT CLOUDY    45  41  86 CALM      30.23R
BOULDER MUN AP LGT RAIN  43  43 100 CALM      30.24R
CENTENNIAL     LGT RAIN  41  39  93 CALM      30.23F
BROOMFIELD     CLOUDY    45  41  87 CALM      30.23F
FORT COLLINS   FAIR      47  40  76 NW8       30.21R
LONGMONT       CLOUDY    47  43  86 W5        30.25R FOG
$$

COZ041-046-047-076>085-087-088-230300-
...PIKES PEAK/PALMER DIVIDE AND SOUTHERN FOOTHILLS...

CITY           SKY/WX    TMP DP  RH WIND       PRES   REMARKS
COLO. SPRINGS  LGT RAIN  43  37  79 N23G31    30.22R
A. F. ACADEMY  LGT RAIN  40  37  89 N14       30.24R
SCHRIEVER AFB  MOCLDY    43  37  81 N25G33    30.21
CHEYENNE MTN   LGT RAIN  39  37  94 N21G38    30.17R
ELLICOTT       LGT RAIN N/A N/A N/A N31G40    30.18R
FALCON         LGT RAIN  38  36  91 N18G28    30.23R
FORT CARSON    MOCLDY    45  39  81 N30G41    30.19R
LIMON          LGT RAIN  42  41  96 NW15      30.19R
MONUMENT HILL  LGT RAIN  34  34 100 N12       30.27R WCI  25
CANON CITY     NOT AVBL
WALSENBURG     CLOUDY    55  43  62 NE16G23   30.14R
TRINIDAD       CLOUDY    57  36  45 S3        30.09R
$$

COZ042>045-048>051-090-091-230300-
...NORTHEAST COLORADO...

CITY           SKY/WX    TMP DP  RH WIND       PRES   REMARKS
GREELEY ARPT   NOT AVBL
AKRON          FAIR      46  40  79 N18       30.14R
BURLINGTON     LGT RAIN  50  45  83 N14       30.12R
WRAY           FAIR      52  43  71 NW15G25   30.10R
YUMA           FAIR      46  34  61 NW10      30.12R
STERLING       FAIR      50  41  71 N15       30.13S
HOLYOKE        NOT AVBL
FORT MORGAN    FAIR      47  37  68 NW13G18   30.19R
$$

COZ086-089-092>099-230300-
...SOUTHEAST COLORADO...

CITY           SKY/WX    TMP DP  RH WIND       PRES   REMARKS
PUEBLO         CLOUDY    56  43  61 N32G45    30.11R
LA JUNTA       FAIR      56  44  64 N29G36    30.07R
LAMAR          MOCLDY    56  43  61 N31G41    30.04R
SPRINGFIELD      N/A     57  44  62 NW3       30.02R
$$




USA.gov is the U.S. government's official web portal to all federal, state and local government web resources and services.